Regional Weather Roundup
Issued by NWS

Home | Current Version | Previous Version | Graphics & Text | Print | Product List | Glossary On
Versions: 1 2 3 4 5 6 7 8 9 10 11 12 13 14 15 16 17 18 19 20 21 22 23 24 25 26 27 28 29 30 31 32 33 34 35 36 37 38 39 40 41 42 43 44 45 46 47 48 49 50
000
ASUS45 KABQ 312301
RWRNM
NEW MEXICO REGIONAL WEATHER ROUNDUP
NATIONAL WEATHER SERVICE ALBUQUERQUE NM
500 PM MDT FRI JUL 31 2015

NOTE: "FAIR" MEANS FEW OR NO CLOUDS BELOW 12,000 FEET AGL WITH NO
       SIGNIFICANT WEATHER OR OBSTRUCTIONS TO VISION.

      THIS PRODUCT IS RELEASED AS TWO VERSIONS.  ONE VERSION NEAR
      THE TOP OF THE HOUR CONTAINING PRELIMINARY DATA FROM ALBUQUERQUE
      AND OTHER STATIONS.  A FINAL VERSION WITH ADDITIONAL DATA IS
      ISSUED ABOUT 10 MINUTES AFTER THE HOUR.

NMZ501-503-504-510>518-010000-
NORTHWEST PLATEAU/NORTHCENTRAL MOUNTAINS

CITY           SKY/WX    TMP DP  RH WIND       PRES   REMARKS
FARMINGTON     PTSUNNY   70  61  73 SE5       30.24F
SANTA FE       PTSUNNY   79  56  45 N14       30.32F
TAOS           CLOUDY    63  50  63 NE12      30.44F

$$
NMZ402-403-502-505>509-010000-
WESTCENTRAL MOUNTAINS/SOUTHWEST MOUNTAINS

CITY           SKY/WX    TMP DP  RH WIND       PRES   REMARKS
GALLUP         MOSUNNY   82  52  35 NE5       30.29F
SILVER CITY      N/A     84  54  34 S13G18    30.24F

$$
NMZ407-409-411-412-010000-
SOUTHERN DESERTS

CITY           SKY/WX    TMP DP  RH WIND       PRES   REMARKS
DEMING         SUNNY     90  59  35 SE8       30.13F
HOLLOMAN AFB   MOSUNNY   90  55  30 NE18      30.10F
ALAMOGORDO     PTSUNNY   90  54  29 NE12G21   30.13F
T OR C         SUNNY     87  54  32 SW7       30.18F

$$
NMZ519>523-010000-
CENTRAL VALLEYS/CENTRAL HIGHLANDS

CITY           SKY/WX    TMP DP  RH WIND       PRES   REMARKS
ALBUQUERQUE    PTSUNNY   81  55  40 W8        30.25F
DOUBLE EAGLE   PTSUNNY   72  64  78 CALM      30.29F
MORIARTY ARPT    N/A     74  56  53 N3        30.34S
CLINES CORNERS CLOUDY    71  58  63 E12       30.37F
BELEN          FAIR      82  55  38 NW16G23   30.24R
SOCORRO        NOT AVBL

$$
NMZ524>526-539-540-010000-
SOUTHCENTRAL MOUNTAINS

CITY           SKY/WX    TMP DP  RH WIND       PRES   REMARKS
RUIDOSO          N/A    N/A N/A N/A MISG        N/A

$$
NMZ527>531-010000-
NORTHEAST HIGHLANDS/NORTHEAST PLAINS

CITY           SKY/WX    TMP DP  RH WIND       PRES   REMARKS
LAS VEGAS      CLOUDY    68  54  60 SW5       30.39F
RATON          CLOUDY    79  52  38 CALM      30.29F
CLAYTON        MOSUNNY   79  63  57 S14       30.23F

$$
NMZ532>537-010000-
EASTCENTRAL PLAINS

CITY           SKY/WX    TMP DP  RH WIND       PRES   REMARKS
TUCUMCARI      MOSUNNY   84  65  52 VRB6      30.17F
CANNON AFB     MOSUNNY   87  64  46 SE7       30.19F
CLOVIS AIRPORT CLOUDY    84  61  45 E7        30.21S

$$
NMZ028-029-538-010000-
SOUTHEAST PLAINS

CITY           SKY/WX    TMP DP  RH WIND       PRES   REMARKS
ROSWELL        PTSUNNY   94  53  25 MISG      30.10F
ARTESIA        SUNNY     95  54  24 E8G15     30.10F
CARLSBAD       MOSUNNY   96  49  20 SE6       30.07F
HOBBS          MOSUNNY   93  48  21 SE13G18   30.12F


$$



USA.gov is the U.S. government's official web portal to all federal, state and local government web resources and services.